HK6RM-20 Weather Reports


time (UTC)temp
F
wind
direction
speed
knots
gust
knots
rain 1hr
in
rain 24hr
in
rain mn
in
humidity
%
barometer
mb
20260507090137 63 108 0.9 0.9 0.00 0.00 0.00 91 1015.0
20260507084834 64 108 0.9 0.9 0.00 0.00 0.00 91 1014.0
20260507083534 65 108 0.9 0.9 0.00 0.00 0.00 91 1014.0
20260507082233 66 108 0.9 0.9 0.00 0.00 0.00 91 1015.0
20260507080933 67 108 0.9 0.9 0.00 0.00 0.00 91 1015.0
20260507075631 68 108 0.9 0.9 0.00 0.00 0.00 91 1014.0
20260507074330 69 108 0.9 0.9 0.00 0.00 0.00 91 1014.0
20260507073028 70 108 0.9 0.9 0.00 0.00 0.00 91 1014.0
20260507071727 71 108 0.9 0.9 0.00 0.00 0.00 91 1015.0
20260507070424 72 108 0.9 0.9 0.00 0.00 0.00 91 1015.0
20260507065123 73 108 0.9 0.9 0.00 0.00 0.00 91 1015.0
20260507063823 74 108 0.9 1.7 0.00 0.00 0.00 91 1015.0
20260507062522 64 78 0.9 0.9 0.00 0.00 0.00 83 1016.0
20260507061221 65 78 0.9 0.9 0.00 0.00 0.00 83 1015.0
20260507055921 66 78 0.9 0.9 0.00 0.00 0.00 83 1015.0
20260507054620 67 78 0.9 0.9 0.00 0.00 0.00 83 1015.0
20260507053320 68 78 0.9 0.9 0.00 0.00 0.00 83 1015.0
20260507052019 69 78 0.9 0.9 0.00 0.00 0.00 83 1016.0
20260507050718 70 78 0.9 0.9 0.00 0.00 0.00 83 1016.0
20260507045418 71 78 0.9 0.9 0.00 0.00 0.00 83 1016.0
20260507044117 72 78 0.9 0.9 0.00 0.00 0.00 83 1016.0
20260507042816 73 78 0.9 1.7 0.00 0.00 0.00 83 1017.0
20260507041516 65 99 0.9 2.6 0.00 0.00 0.00 79 1017.0
20260507040215 66 99 0.9 2.6 0.00 0.00 0.00 79 1017.0
20260507034914 67 99 0.9 2.6 0.00 0.00 0.00 79 1016.0
20260507033614 68 99 0.9 2.6 0.00 0.00 0.00 79 1016.0
20260507032313 69 99 0.9 2.6 0.00 0.00 0.00 79 1016.0
20260507031011 70 99 0.9 2.6 0.00 0.00 0.00 79 1016.0
20260507025710 71 99 0.9 2.6 0.00 0.00 0.00 79 1015.0
20260507024410 72 99 0.9 2.6 0.00 0.00 0.00 79 1015.0
20260507023108 73 99 0.9 2.6 0.00 0.00 0.00 79 1015.0
20260507021806 74 99 0.9 2.6 0.00 0.00 0.00 79 1016.0
20260507020506 75 99 0.9 2.6 0.00 0.00 0.00 79 1016.0
20260507015205 66 102 0.9 3.5 0.00 0.00 0.00 67 1015.0
20260507013905 67 102 0.9 3.5 0.00 0.00 0.00 67 1014.0
20260507012604 68 102 0.9 3.5 0.00 0.00 0.00 67 1015.0
20260507011300 69 102 0.9 3.5 0.00 0.00 0.00 67 1015.0
20260507005959 70 102 0.9 3.5 0.00 0.00 0.00 67 1014.0
20260507004656 71 102 0.9 3.5 0.00 0.00 0.00 67 1014.0
20260507003356 72 102 0.9 3.5 0.00 0.00 0.00 67 1013.0
20260507002055 73 102 0.9 3.5 0.00 0.00 0.00 67 1012.0
20260507000754 74 102 0.9 3.5 0.00 0.00 0.00 67 1012.0
20260506235451 75 102 0.9 3.5 0.00 0.00 0.00 67 1011.0
20260506234150 76 102 0.9 3.5 0.00 0.00 0.00 67 1011.0
20260506232849 77 102 0.9 3.5 0.00 0.00 0.00 67 1010.0
20260506231549 78 102 0.9 3.5 0.00 0.00 0.00 67 1010.0
20260506230247 79 102 0.9 3.5 0.00 0.00 0.00 67 1010.0
20260506224946 80 102 0.9 3.5 0.00 0.00 0.00 67 1009.0
20260506223644 81 102 0.9 3.5 0.00 0.00 0.00 67 1009.0
20260506222344 81 358 0.0 1.7 0.00 0.00 0.00 58 1008.0
20260506221042 82 358 0.0 1.7 0.00 0.00 0.00 58 1007.0
20260506215742 83 358 0.0 1.7 0.00 0.00 0.00 58 1007.0
20260506214441 84 358 0.0 1.7 0.00 0.00 0.00 58 1007.0
20260506213141 85 358 0.0 1.7 0.00 0.00 0.00 58 1007.0
20260506211840 86 343 1.7 1.7 0.00 0.00 0.00 53 1006.0
20260506210540 86 343 1.7 1.7 0.00 0.00 0.00 53 1006.0
20260506205238 86 343 1.7 1.7 0.00 0.00 0.00 50 1006.0
20260506203938 86 343 1.7 1.7 0.00 0.00 0.00 51 1006.0
20260506202637 86 338 2.6 1.7 0.00 0.00 0.00 56 1007.0
20260506201337 86 338 2.6 1.7 0.00 0.00 0.00 55 1007.0
20260506200036 86 338 2.6 1.7 0.00 0.00 0.00 53 1007.0
20260506194736 86 338 2.6 1.7 0.00 0.00 0.00 53 1007.0
20260506193435 86 338 2.6 1.7 0.00 0.00 0.00 53 1007.0
20260506192135 86 326 2.6 2.6 0.00 0.00 0.00 55 1008.0
20260506190834 86 326 2.6 2.6 0.00 0.00 0.00 53 1008.0
20260506185534 87 326 2.6 2.6 0.00 0.00 0.00 51 1008.0
20260506184231 87 326 2.6 2.6 0.00 0.00 0.00 53 1008.0
20260506182928 86 310 2.6 2.6 0.00 0.00 0.00 56 1009.0
20260506181628 86 310 2.6 2.6 0.00 0.00 0.00 56 1009.0
20260506180328 86 310 2.6 2.6 0.00 0.00 0.00 54 1009.0
20260506175027 86 310 2.6 2.6 0.00 0.00 0.00 54 1009.0
20260506173727 86 320 2.6 2.6 0.00 0.00 0.00 56 1009.0
20260506172426 85 302 2.6 3.5 0.00 0.00 0.00 61 1010.0
20260506171124 85 302 2.6 3.5 0.00 0.00 0.00 58 1010.0
20260506165824 85 302 2.6 3.5 0.00 0.00 0.00 55 1010.0
20260506164519 86 302 2.6 3.5 0.00 0.00 0.00 58 1011.0
20260506163218 86 302 2.6 3.5 0.00 0.00 0.00 58 1011.0
20260506161917 83 295 2.6 3.5 0.00 0.00 0.00 66 1012.0
20260506160616 83 295 2.6 3.5 0.00 0.00 0.00 66 1012.0
20260506155316 84 295 2.6 3.5 0.00 0.00 0.00 64 1012.0
20260506154015 81 305 0.9 2.6 0.00 0.00 0.00 72 1013.0
20260506152715 82 305 1.7 2.6 0.00 0.00 0.00 72 1014.0
20260506151413 80 305 0.9 2.6 0.00 0.00 0.00 71 1014.0
20260506150112 81 305 1.7 2.6 0.00 0.00 0.00 71 1014.0
20260506144810 80 305 0.9 2.6 0.00 0.00 0.00 74 1014.0
20260506143508 81 305 1.7 2.6 0.00 0.00 0.00 74 1014.0
20260506142208 76 289 0.9 0.9 0.00 0.00 0.00 86 1016.0
20260506140907 77 289 0.9 0.9 0.00 0.00 0.00 86 1016.0
20260506135607 76 289 0.9 0.9 0.00 0.00 0.00 81 1015.0
20260506134306 77 289 0.9 0.9 0.00 0.00 0.00 81 1015.0
20260506133006 72 260 0.9 0.9 0.00 0.00 0.00 90 1015.0
20260506131705 73 260 0.9 0.9 0.00 0.00 0.00 90 1016.0
20260506130405 74 260 0.9 0.9 0.00 0.00 0.00 90 1016.0
20260506125103 75 260 0.9 0.9 0.00 0.00 0.00 90 1016.0
20260506123803 68 260 0.9 0.9 0.00 0.00 0.00 94 1016.0
20260506122502 69 28 0.0 0.9 0.00 0.00 0.00 94 1016.0
20260506121200 70 28 0.0 0.9 0.00 0.00 0.00 94 1016.0
20260506115900 71 28 0.0 0.9 0.00 0.00 0.00 94 1016.0
20260506114558 72 360 0.0 0.9 0.00 0.00 0.00 94 1016.0
20260506113258 66 360 0.0 0.9 0.00 0.00 0.00 95 1016.0
20260506111957 67 61 0.0 0.9 0.00 0.00 0.00 95 1015.0
20260506110657 68 61 0.0 0.9 0.00 0.00 0.00 95 1015.0
20260506105356 69 61 0.0 0.9 0.00 0.00 0.00 95 1015.0
20260506104055 70 61 0.0 0.9 0.00 0.00 0.00 95 1015.0
20260506102754 71 96 0.0 0.9 0.00 0.00 0.00 95 1015.0
20260506101454 64 96 0.0 0.9 0.00 0.00 0.00 95 1016.0
20260506100153 65 96 0.0 0.9 0.00 0.00 0.00 95 1016.0
20260506094852 66 96 0.0 0.9 0.00 0.00 0.00 95 1015.0
20260506093551 67 96 0.0 0.9 0.00 0.00 0.00 95 1015.0
20260506092250 68 77 0.0 0.9 0.00 0.00 0.00 95 1015.0